EW6762 Weather Reports


time (UTC)temp
C
wind
direction
speed
KPH
gust
KPH
rain 1hr
cm
rain 24hr
cm
rain mn
cm
humidity
%
barometer
mb
20260504020334 15 74 0.0 3.2 0.00 0.10 0.03 57 1018.6
20260504015310 15 62 0.0 3.2 0.00 0.10 0.03 56 1018.5
20260504014334 15 332 0.0 1.6 0.00 0.10 0.03 56 1018.4
20260504013311 15 331 0.0 1.6 0.00 0.10 0.03 56 1018.3
20260504012327 16 319 0.0 1.6 0.00 0.10 0.03 57 1018.1
20260504011330 16 319 0.0 1.6 0.00 0.10 0.03 57 1018.0
20260504010311 16 319 0.0 3.2 0.00 0.10 0.03 51 1017.8
20260504005309 17 306 0.0 1.6 0.00 0.10 0.03 52 1017.6
20260504004332 17 306 0.0 1.6 0.00 0.10 0.03 49 1017.5
20260504003331 17 306 0.0 1.6 0.00 0.10 0.03 48 1017.4
20260504002308 18 306 1.6 1.6 0.00 0.10 0.03 47 1017.4
20260504001326 18 306 0.0 0.0 0.00 0.10 0.03 45 1017.3
20260504000330 19 306 0.0 0.0 0.00 0.10 0.03 43 1017.2
20260503235326 20 306 0.0 1.6 0.00 0.10 0.03 41 1017.1
20260503234322 21 306 0.0 3.2 0.00 0.10 0.03 41 1017.1
20260503233326 21 286 3.2 6.4 0.00 0.10 0.03 38 1017.0
20260503232323 21 289 3.2 4.8 0.00 0.10 0.03 38 1017.0
20260503231321 22 275 1.6 8.0 0.00 0.10 0.03 37 1017.0
20260503230323 22 286 4.8 8.0 0.00 0.10 0.03 36 1017.0
20260503225315 22 257 4.8 12.9 0.00 0.10 0.03 37 1017.0
20260503224309 22 279 4.8 11.3 0.00 0.10 0.03 35 1017.0
20260503223316 23 275 8.0 14.5 0.00 0.10 0.03 35 1017.0
20260503222340 23 324 6.4 14.5 0.00 0.10 0.03 34 1017.0
20260503221312 23 252 6.4 20.9 0.00 0.10 0.03 34 1017.0
20260503220334 23 275 9.7 19.3 0.00 0.10 0.03 34 1017.0
20260503215309 22 281 8.0 16.1 0.00 0.10 0.03 35 1017.0
20260503214351 22 290 8.0 20.9 0.00 0.10 0.03 33 1017.0
20260503213324 23 284 9.7 16.1 0.00 0.10 0.03 37 1017.0
20260503212319 22 288 4.8 14.5 0.00 0.10 0.03 35 1017.0
20260503211344 23 286 6.4 12.9 0.00 0.10 0.03 34 1016.9
20260503210319 23 279 9.7 22.5 0.00 0.10 0.03 35 1016.9
20260503205338 23 242 4.8 16.1 0.00 0.10 0.03 36 1017.0
20260503204310 23 276 9.7 20.9 0.00 0.10 0.03 37 1017.2
20260503203309 22 281 8.0 17.7 0.00 0.10 0.03 37 1017.2
20260503202351 22 257 12.9 22.5 0.00 0.10 0.03 37 1017.3
20260503201326 22 255 6.4 20.9 0.00 0.10 0.03 38 1017.5
20260503200325 22 260 9.7 17.7 0.00 0.10 0.03 41 1017.6
20260503195320 22 229 8.0 20.9 0.00 0.20 0.03 39 1017.8
20260503194316 22 327 4.8 24.1 0.00 0.20 0.03 41 1017.9
20260503193335 22 287 9.7 17.7 0.00 0.20 0.03 40 1018.1
20260503192332 22 264 8.0 20.9 0.00 0.20 0.03 40 1018.1
20260503191325 22 249 11.3 17.7 0.00 0.20 0.03 40 1018.4
20260503190318 22 265 11.3 22.5 0.00 0.20 0.03 39 1018.6
20260503185315 21 306 8.0 24.1 0.00 0.41 0.03 41 1018.7
20260503184310 21 265 11.3 24.1 0.00 0.41 0.03 41 1018.7
20260503183327 21 338 8.0 19.3 0.00 0.41 0.03 40 1018.7
20260503182317 21 304 11.3 22.5 0.00 0.41 0.03 45 1019.0
20260503181320 20 272 12.9 22.5 0.00 0.41 0.03 44 1019.2
20260503180334 21 229 8.0 17.7 0.00 0.41 0.03 41 1019.1
20260503175309 20 139 6.4 19.3 0.00 0.61 0.03 47 1019.3
20260503174322 20 257 14.5 27.4 0.00 0.61 0.03 44 1019.4
20260503173320 20 234 8.0 24.1 0.00 0.61 0.03 46 1019.5
20260503172316 20 286 8.0 20.9 0.00 0.61 0.03 45 1019.6
20260503171309 20 289 8.0 24.1 0.00 0.61 0.03 48 1019.7
20260503170346 20 296 4.8 19.3 0.00 0.61 0.03 47 1019.8
20260503150345 16 298 6.4 17.7 0.00 1.80 0.03 52 1020.7
20260503140315 15 307 8.0 20.9 0.00 3.20 0.03 58 1020.5
20260503131323 13 292 4.8 16.1 0.00 3.61 0.03 64 1020.6
20260503130312 12 294 8.0 16.1 0.00 3.61 0.03 71 1020.6
20260503110349 7 309 3.2 11.3 0.00 4.39 0.03 85 1019.1
20260503090314 7 297 4.8 8.0 0.10 6.10 0.03 89 1017.9
20260503081310 8 271 4.8 8.0 0.00 5.99 0.00 90 1017.3
20260503080348 8 277 3.2 6.4 0.00 5.99 0.00 90 1017.2
20260503072309 9 265 4.8 9.7 0.00 5.99 0.00 91 1016.8
20260503071312 9 272 4.8 9.7 0.00 5.99 0.00 91 1016.6
20260503070323 9 298 4.8 11.3 0.00 5.99 0.00 92 1016.5
20260503060321 10 247 4.8 11.3 0.00 5.99 0.00 93 1016.1
20260503054318 10 269 3.2 9.7 0.00 5.99 0.00 94 1016.2
20260503053332 11 259 4.8 9.7 0.00 5.99 0.00 94 1016.1
20260503052314 11 286 3.2 8.0 0.00 5.99 0.00 94 1016.0
20260503051335 11 277 4.8 11.3 0.00 5.99 0.00 94 1016.1
20260503050329 11 269 4.8 11.3 0.00 5.99 0.00 94 1016.1
20260503045349 11 270 4.8 9.7 0.00 5.99 0.00 93 1016.0
20260503044320 11 259 4.8 9.7 0.00 5.99 0.00 93 1016.0
20260503043340 11 279 3.2 6.4 0.00 5.99 0.00 93 1016.0
20260503042312 11 265 3.2 6.4 0.00 5.99 0.00 93 1015.9
20260503041332 11 259 3.2 9.7 0.00 5.99 0.00 93 1015.9
20260503040321 11 262 3.2 9.7 0.00 5.99 0.00 93 1015.8
20260503035320 11 254 4.8 6.4 0.00 5.99 1.52 93 1015.6
20260503034315 11 247 3.2 6.4 0.00 5.99 1.52 93 1015.5
20260503033322 11 261 3.2 6.4 0.00 5.99 1.52 94 1015.5
20260503032317 11 273 3.2 6.4 0.00 5.99 1.52 94 1015.4
20260503031313 11 271 3.2 6.4 0.00 5.99 1.52 94 1015.2
20260503030316 11 269 3.2 6.4 0.00 5.99 1.52 94 1015.2
20260503025312 11 274 0.0 1.6 0.00 5.99 1.52 93 1015.1
20260503024312 11 274 0.0 3.2 0.00 5.99 1.52 93 1015.3
20260503023328 11 275 1.6 4.8 0.00 5.99 1.52 93 1015.3
20260503022329 11 277 1.6 3.2 0.00 5.99 1.52 93 1015.3
20260503021323 11 262 1.6 3.2 0.00 5.99 1.52 93 1015.3